Weather History for South Bend, IN

Change the Weather History Date:

Tuesday, April 23, 2013

  Actual Average Record
Temperature  
Mean Temperature 53 °F 52 °F  
Max Temperature 66 °F 63 °F 86 °F (1960)
Min Temperature 39 °F 41 °F 20 °F (1936)
Degree Days  
Heating Degree Days 12 14  
Month to date heating degree days 450 403  
Since 1 July heating degree days 5861 5947  
Cooling Degree Days 0 0  
Month to date cooling degree days 0 0  
Year to date cooling degree days 0 1  
Growing Degree Days 2 (Base 50)    
Moisture  
Dew Point 43 °F    
Average Humidity 71    
Maximum Humidity 93    
Minimum Humidity 48    
Precipitation  
Precipitation 0.55 in 0.11 in 1.07 in (1966)
Month to date precipitation 5.13 2.44  
Year to date precipitation 13.88 9.10  
Snow  
Snow 0.00 in - - ()
Month to date snowfall T  
Snow Depth 0.00 in    
Sea Level Pressure  
Sea Level Pressure 29.96 in    
Wind  
Wind Speed 12 mph (SSW)    
Max Wind Speed 20 mph    
Max Gust Speed 25 mph    
Visibility 8 miles    
Events Rain    
T = Trace of Precipitation, MM = Missing Value Source: NWS Daily Summary

Daily Weather History Graph

Daily Weather History Graph

Search for Another Location

Airport:

Trip Planner

Search our weather history database for the weather conditions in past years. The results will help you decide how hot, cold, wet, or windy it might be!

Date:

Astronomy

Apr. 23, 2013 Rise Set
Actual Time 6:52 AM EDT 8:35 PM EDT
Civil Twilight 6:23 AM EDT 9:04 PM EDT
Nautical Twilight 5:47 AM EDT 9:40 PM EDT
Astronomical Twilight 5:09 AM EDT 10:19 PM EDT
Moon 6:28 PM EDT (4/23) 5:22 AM EDT (4/23)
Length of Visible Light 14h 41m
Length of Day
13h 42m
Waxing Gibbous, 94% of the Moon is Illuminated
Apr 23
Waxing Gibbous
Apr 25
Full
May 2
Last Quarter
May 9
New
May 18
First Quarter

Hourly Weather History & Observations

Time (EDT) Temp. Windchill Dew Point Humidity Pressure Visibility Wind Dir Wind Speed Gust Speed Precip Events Conditions
12:54 AM 51.1 °F - 36.0 °F 56% 30.12 in 10.0 mi ESE 8.1 mph - N/A   Clear
1:54 AM 50.0 °F - 36.0 °F 59% 30.11 in 10.0 mi ESE 9.2 mph - N/A   Clear
2:54 AM 50.0 °F - 36.0 °F 59% 30.08 in 10.0 mi ESE 10.4 mph - N/A   Clear
3:54 AM 50.0 °F - 36.0 °F 59% 30.06 in 10.0 mi SE 10.4 mph - N/A   Clear
4:54 AM 50.0 °F - 37.0 °F 61% 30.02 in 10.0 mi SE 9.2 mph - N/A   Partly Cloudy
5:54 AM 50.0 °F - 37.0 °F 61% 30.02 in 10.0 mi SSE 8.1 mph - N/A   Scattered Clouds
6:54 AM 51.1 °F - 39.9 °F 66% 30.01 in 10.0 mi SSE 6.9 mph - 0.00 in   Partly Cloudy
7:54 AM 53.1 °F - 41.0 °F 64% 30.03 in 10.0 mi South 4.6 mph - N/A   Mostly Cloudy
8:54 AM 54.0 °F - 43.0 °F 66% 30.02 in 10.0 mi South 10.4 mph - 0.01 in   Overcast
9:54 AM 55.9 °F - 44.1 °F 64% 30.00 in 10.0 mi South 11.5 mph - 0.00 in   Mostly Cloudy
10:54 AM 59.0 °F - 45.0 °F 60% 29.98 in 10.0 mi South 12.7 mph - N/A   Mostly Cloudy
11:54 AM 63.0 °F - 46.0 °F 54% 29.97 in 10.0 mi South 11.5 mph - N/A   Scattered Clouds
12:54 PM 64.9 °F - 46.0 °F 50% 29.94 in 10.0 mi South 13.8 mph - N/A   Partly Cloudy
1:54 PM 66.0 °F - 46.9 °F 50% 29.91 in 10.0 mi South 18.4 mph 24.2 mph N/A   Overcast
2:54 PM 60.1 °F - 51.1 °F 72% 29.91 in 7.0 mi SW 15.0 mph - 0.01 in Rain Light Rain
3:17 PM 57.2 °F - 53.6 °F 88% 29.92 in 2.0 mi WSW 16.1 mph - 0.08 in Rain Heavy Rain
3:37 PM 57.2 °F - 53.6 °F 88% 29.92 in 6.0 mi WSW 12.7 mph - 0.12 in Rain Light Rain
3:54 PM 57.0 °F - 53.1 °F 87% 29.93 in 7.0 mi SW 12.7 mph - 0.13 in Rain Light Rain
4:54 PM 55.9 °F - 53.1 °F 90% 29.90 in 5.0 mi SSW 11.5 mph - 0.04 in Rain Light Rain
5:40 PM 55.4 °F - 53.6 °F 94% 29.88 in 7.0 mi SSW 10.4 mph - 0.01 in Rain Light Rain
5:54 PM 55.9 °F - 54.0 °F 93% 29.88 in 7.0 mi SSW 10.4 mph - 0.01 in Rain Light Rain
6:12 PM 55.4 °F - 53.6 °F 94% 29.87 in 5.0 mi SSW 9.2 mph - 0.01 in Rain Light Rain
6:54 PM 46.0 °F 40.2 °F 45.0 °F 96% 29.89 in 6.0 mi NNW 12.7 mph - 0.04 in Rain Light Rain
7:54 PM 42.1 °F 34.2 °F 39.0 °F 89% 29.88 in 7.0 mi North 16.1 mph - 0.05 in Rain Light Rain
8:16 PM 41.0 °F 33.5 °F 39.2 °F 93% 29.88 in 10.0 mi North 13.8 mph - 0.01 in Rain Light Rain
8:23 PM 41.0 °F 33.5 °F 37.4 °F 87% 29.88 in 10.0 mi North 13.8 mph - 0.01 in Rain Light Rain
8:54 PM 39.9 °F 31.8 °F 37.9 °F 93% 29.91 in 5.0 mi NNW 15.0 mph - 0.08 in Rain Heavy Rain
8:56 PM 39.2 °F 30.8 °F 37.4 °F 93% 29.90 in 5.0 mi NNW 15.0 mph - 0.01 in Rain Rain
9:54 PM 39.9 °F 32.1 °F 37.9 °F 93% 29.91 in 10.0 mi NNW 13.8 mph - 0.13 in Rain Light Rain
10:54 PM 39.9 °F 32.1 °F 37.9 °F 93% 29.90 in 10.0 mi North 13.8 mph - 0.04 in Rain Light Rain
11:54 PM 39.9 °F 33.9 °F 37.0 °F 89% 29.88 in 10.0 mi North 9.2 mph - 0.00 in Rain Light Rain